Weather in Gorskino

Russia / Kemerovo Oblast     54°27′46″N   85°38′13″E
temp.,
°C
wind,
m/s
gust,
m/s
humid.,
%
clouds,
%
prec.,
mm/h
press.,
hPa
HPBL,
m
23 june, wed
wed2301:00+8ssw4119241 0.1 1009292
04:00+9ssw51192100 0.1 1008501
07:00+9sw61097100 2.1 1009538
10:00+10wsw5898100 3.7 1010525
13:00+12w3483100 6.2 1012757
16:00+15sw3374100 1.1 1012989
19:00+14s348299 2.0 1011707
22:00+10s35946 1.4 101183
24 june, thu
thu2401:00+8se229486 1.4 101024
04:00+7ese23957 0.0 100836
07:00+9e3894100 0.0 1006219
10:00+13ese4680100 0.0 1004618
13:00+14se3583100 0.8 1004594
16:00+14sse3386100 1.0 1005524
19:00+14ssw348796 2.6 1005386
22:00+9ssw4109389 0.7 1006343
25 june, fri
fri2501:00+9s119599 1.0 100632
04:00+7sse229629 0.1 100545
07:00+9ese2497100 0.2 1005180
10:00+10ssw4693100 0.8 1005594
13:00+12w448595 2.1 1006872
16:00+11wsw4691100 0.9 1008438
19:00+10sw4896100 1.6 1009415
22:00+10sw4997100 0.3 1010454
26 june, sat
sat2601:00+9sw5997100 1.9 1010483
04:00+9sw5998100 0.2 1010354
07:00+10sw4798100 0.5 1010325
10:00+10sw4797100 2.4 1011309
13:00+12wnw459499 2.9 1011541
16:00+13nw5788100 0.8 1012691
19:00+14w3578100 0.9 1013582
22:00+10wsw33908 0.0 101426
27 june, sun
sun2701:00+8sw338913 0.0 101529
04:00+8sw369071 0.0 101594
07:00+10sw368760 0.0 1015168
10:00+14wsw4576100 0.0 1015417
13:00+16sw4569100 0.8 10141077
16:00+18w456789 0.6 10131352
19:00+16wsw478063 1.3 1014502
22:00+12sw4790100 0.8 1014128